Starlink 31426

operational
NORAD ID: 59249 Int'l Des: 2024-049 Owner: SPXS Country: US Constellation: starlink
LEOCIRCULAR

Starlink 31426について

説明を読み込み中...

リアルタイム位置

3D地球を読み込み中...

次回通過

高度履歴

Altitude vs Time

uPlot chart will show altitude changes over time

軌道要素

1 59249U 24049U 25302.98170350 .00000079 00000-0 12386-4 0 9993
2 59249 42.9997 161.9012 0000929 281.7146 78.3601 15.27580914 92402
Epoch: Oct 29, 2025 • Age: 16 hours

現在のステータス

高度 484.3 km
速度 7.63 km/s
衛星直下点 30.38°N, 22.71°E
打ち上げ日 Mar 16, 2024
運用期間 1.6 years
タイプ internet

技術仕様

分類 Payload
質量 730.00 kg
乾燥質量 700.00 kg
総質量 730.00 kg
長さ 0.30 m
直径 4.10 m
スパン 29.00 m
形状 Box + pan
製造者 SPXS
バスタイプ Starlink V2M
フェーズステータス In Orbit
所有者/国 SPXS/US

大規模コンステレーション

Loading constellations...